Time,TemperatureF,DewpointF,PressureIn,WindDirection,WindDirectionDegrees,WindSpeedMPH,WindSpeedGustMPH,Humidity,HourlyPrecipIn,Conditions,Clouds,dailyrainin,SoftwareType,DateUTC
2013-07-09 00:03:00,83.1,67.8,29.81,SE,131,4.0,-999.0,60,0.00,,,0.00,WeatherSnoop3.0,2013-07-09 05:03:00,
2013-07-09 00:08:00,83.0,68.1,29.81,South,170,2.0,-999.0,61,0.00,,,0.00,WeatherSnoop3.0,2013-07-09 05:08:00,
2013-07-09 00:13:00,82.9,68.5,29.81,SE,131,2.0,-999.0,62,0.00,,,0.00,WeatherSnoop3.0,2013-07-09 05:13:00,
2013-07-09 00:18:00,82.7,68.3,29.81,SE,140,4.0,-999.0,62,0.00,,,0.00,WeatherSnoop3.0,2013-07-09 05:18:00,
2013-07-09 00:23:00,82.6,68.7,29.81,SSE,155,4.0,-999.0,63,0.00,,,0.00,WeatherSnoop3.0,2013-07-09 05:23:00,
2013-07-09 00:28:00,82.5,68.6,29.81,SE,140,10.0,-999.0,63,0.00,,,0.00,WeatherSnoop3.0,2013-07-09 05:28:00,
2013-07-09 00:33:00,82.3,68.9,29.81,SSE,166,3.0,-999.0,64,0.00,,,0.00,WeatherSnoop3.0,2013-07-09 05:33:00,
2013-07-09 00:38:00,82.2,68.8,29.81,SE,140,4.0,-999.0,64,0.00,,,0.00,WeatherSnoop3.0,2013-07-09 05:38:00,
2013-07-09 00:43:00,82.0,68.6,29.81,SSE,149,4.0,-999.0,64,0.00,,,0.00,WeatherSnoop3.0,2013-07-09 05:43:00,
2013-07-09 00:48:00,81.9,69.0,29.81,South,180,2.0,-999.0,65,0.00,,,0.00,WeatherSnoop3.0,2013-07-09 05:48:00,
2013-07-09 00:53:00,81.7,68.8,29.81,South,186,3.0,-999.0,65,0.00,,,0.00,WeatherSnoop3.0,2013-07-09 05:53:00,
2013-07-09 00:58:00,81.7,68.8,29.81,SE,132,6.0,-999.0,65,0.00,,,0.00,WeatherSnoop3.0,2013-07-09 05:58:00,
2013-07-09 01:03:00,81.7,68.8,29.81,SW,229,4.0,-999.0,65,0.00,,,0.00,WeatherSnoop3.0,2013-07-09 06:03:00,
2013-07-09 01:08:00,81.6,69.1,29.81,SE,143,2.0,-999.0,66,0.00,,,0.00,WeatherSnoop3.0,2013-07-09 06:08:00,
2013-07-09 01:13:00,81.4,68.9,29.81,SSE,163,4.0,-999.0,66,0.00,,,0.00,WeatherSnoop3.0,2013-07-09 06:13:00,
2013-07-09 01:18:00,81.3,68.8,29.81,SSW,204,3.0,-999.0,66,0.00,,,0.00,WeatherSnoop3.0,2013-07-09 06:18:00,
2013-07-09 01:23:00,81.1,69.1,29.81,SE,140,5.0,-999.0,67,0.00,,,0.00,WeatherSnoop3.0,2013-07-09 06:23:00,
2013-07-09 01:28:00,81.0,69.0,29.81,SSW,201,3.0,-999.0,67,0.00,,,0.00,WeatherSnoop3.0,2013-07-09 06:28:00,
2013-07-09 01:33:00,80.8,68.8,29.81,SSE,158,4.0,-999.0,67,0.00,,,0.00,WeatherSnoop3.0,2013-07-09 06:33:00,
2013-07-09 01:38:00,80.6,69.0,29.81,SSE,167,2.0,-999.0,68,0.00,,,0.00,WeatherSnoop3.0,2013-07-09 06:38:00,
2013-07-09 01:43:00,80.4,68.8,29.81,South,171,6.0,-999.0,68,0.00,,,0.00,WeatherSnoop3.0,2013-07-09 06:43:00,
2013-07-09 01:48:00,80.3,69.2,29.82,SE,143,1.0,-999.0,69,0.00,,,0.00,WeatherSnoop3.0,2013-07-09 06:48:00,
2013-07-09 01:53:00,80.1,69.0,29.82,ESE,115,6.0,-999.0,69,0.00,,,0.00,WeatherSnoop3.0,2013-07-09 06:53:00,
2013-07-09 01:58:00,80.1,69.4,29.81,ESE,120,2.0,-999.0,70,0.00,,,0.00,WeatherSnoop3.0,2013-07-09 06:58:00,
2013-07-09 02:03:00,80.0,69.3,29.81,ESE,107,2.0,-999.0,70,0.00,,,0.00,WeatherSnoop3.0,2013-07-09 07:03:00,
2013-07-09 02:08:00,79.8,69.1,29.82,ESE,117,3.0,-999.0,70,0.00,,,0.00,WeatherSnoop3.0,2013-07-09 07:08:00,
2013-07-09 02:13:00,79.7,69.4,29.82,SSE,152,1.0,-999.0,71,0.00,,,0.00,WeatherSnoop3.0,2013-07-09 07:13:00,
2013-07-09 02:18:00,79.7,69.4,29.82,SSE,158,4.0,-999.0,71,0.00,,,0.00,WeatherSnoop3.0,2013-07-09 07:18:00,
2013-07-09 02:23:00,79.6,69.3,29.82,SE,135,4.0,-999.0,71,0.00,,,0.00,WeatherSnoop3.0,2013-07-09 07:23:00,
2013-07-09 02:28:00,79.5,69.3,29.82,SSE,155,2.0,-999.0,71,0.00,,,0.00,WeatherSnoop3.0,2013-07-09 07:28:00,
2013-07-09 02:33:00,79.4,69.6,29.82,South,179,1.0,-999.0,72,0.00,,,0.00,WeatherSnoop3.0,2013-07-09 07:33:00,
2013-07-09 02:38:00,79.3,69.5,29.82,SSE,156,4.0,-999.0,72,0.00,,,0.00,WeatherSnoop3.0,2013-07-09 07:38:00,
2013-07-09 02:43:00,79.3,69.5,29.82,SE,136,5.0,-999.0,72,0.00,,,0.00,WeatherSnoop3.0,2013-07-09 07:43:00,
2013-07-09 02:48:00,79.3,69.5,29.82,SW,222,2.0,-999.0,72,0.00,,,0.00,WeatherSnoop3.0,2013-07-09 07:48:00,
2013-07-09 02:53:00,79.2,69.4,29.82,ESE,113,5.0,-999.0,72,0.00,,,0.00,WeatherSnoop3.0,2013-07-09 07:53:00,
2013-07-09 02:58:00,79.1,69.7,29.82,SE,125,2.0,-999.0,73,0.00,,,0.00,WeatherSnoop3.0,2013-07-09 07:58:00,
2013-07-09 03:03:00,79.0,69.6,29.82,SE,129,5.0,-999.0,73,0.00,,,0.00,WeatherSnoop3.0,2013-07-09 08:03:00,
2013-07-09 03:08:00,79.0,69.6,29.81,SE,138,4.0,-999.0,73,0.00,,,0.00,WeatherSnoop3.0,2013-07-09 08:08:00,
2013-07-09 03:13:00,79.0,69.6,29.81,SSE,151,2.0,-999.0,73,0.00,,,0.00,WeatherSnoop3.0,2013-07-09 08:13:00,
2013-07-09 03:18:00,78.9,69.5,29.82,SSE,149,2.0,-999.0,73,0.00,,,0.00,WeatherSnoop3.0,2013-07-09 08:18:00,
2013-07-09 03:23:00,78.8,69.4,29.81,South,184,3.0,-999.0,73,0.00,,,0.00,WeatherSnoop3.0,2013-07-09 08:23:00,
2013-07-09 03:28:00,78.8,69.8,29.81,SSE,153,4.0,-999.0,74,0.00,,,0.00,WeatherSnoop3.0,2013-07-09 08:28:00,
2013-07-09 03:33:00,78.6,69.6,29.81,South,183,2.0,-999.0,74,0.00,,,0.00,WeatherSnoop3.0,2013-07-09 08:33:00,
2013-07-09 03:39:00,78.6,69.6,29.81,SSE,167,2.0,-999.0,74,0.00,,,0.00,WeatherSnoop3.0,2013-07-09 08:39:00,
2013-07-09 03:44:00,78.5,69.5,29.82,South,188,2.0,-999.0,74,0.00,,,0.00,WeatherSnoop3.0,2013-07-09 08:44:00,
2013-07-09 03:49:00,78.4,69.4,29.82,SE,142,3.0,-999.0,74,0.00,,,0.00,WeatherSnoop3.0,2013-07-09 08:49:00,
2013-07-09 03:54:00,78.3,69.7,29.81,SSE,147,3.0,-999.0,75,0.00,,,0.00,WeatherSnoop3.0,2013-07-09 08:54:00,
2013-07-09 03:59:00,78.2,69.6,29.81,SSE,167,2.0,-999.0,75,0.00,,,0.00,WeatherSnoop3.0,2013-07-09 08:59:00,
2013-07-09 04:04:00,78.1,69.5,29.81,SE,133,2.0,-999.0,75,0.00,,,0.00,WeatherSnoop3.0,2013-07-09 09:04:00,
2013-07-09 04:09:00,77.9,69.3,29.81,SE,142,4.0,-999.0,75,0.00,,,0.00,WeatherSnoop3.0,2013-07-09 09:09:00,
2013-07-09 04:14:00,77.8,69.2,29.81,ESE,118,4.0,-999.0,75,0.00,,,0.00,WeatherSnoop3.0,2013-07-09 09:14:00,
2013-07-09 04:19:00,77.7,69.5,29.81,SE,145,2.0,-999.0,76,0.00,,,0.00,WeatherSnoop3.0,2013-07-09 09:19:00,
2013-07-09 04:24:00,77.5,69.3,29.81,SSE,150,2.0,-999.0,76,0.00,,,0.00,WeatherSnoop3.0,2013-07-09 09:24:00,
2013-07-09 04:29:00,77.4,69.2,29.81,SSE,166,3.0,-999.0,76,0.00,,,0.00,WeatherSnoop3.0,2013-07-09 09:29:00,
2013-07-09 04:34:00,77.3,69.1,29.81,SE,142,2.0,-999.0,76,0.00,,,0.00,WeatherSnoop3.0,2013-07-09 09:34:00,
2013-07-09 04:39:00,77.2,69.4,29.81,SE,142,2.0,-999.0,77,0.00,,,0.00,WeatherSnoop3.0,2013-07-09 09:39:00,
2013-07-09 04:44:00,77.1,69.3,29.81,SSW,203,2.0,-999.0,77,0.00,,,0.00,WeatherSnoop3.0,2013-07-09 09:44:00,
2013-07-09 04:49:00,77.0,69.2,29.80,SE,139,3.0,-999.0,77,0.00,,,0.00,WeatherSnoop3.0,2013-07-09 09:49:00,
2013-07-09 04:54:00,77.0,69.2,29.80,South,183,4.0,-999.0,77,0.00,,,0.00,WeatherSnoop3.0,2013-07-09 09:54:00,
2013-07-09 04:59:00,77.0,69.2,29.80,South,170,2.0,-999.0,77,0.00,,,0.00,WeatherSnoop3.0,2013-07-09 09:59:00,
2013-07-09 05:04:00,76.8,69.0,29.80,ESE,117,3.0,-999.0,77,0.00,,,0.00,WeatherSnoop3.0,2013-07-09 10:04:00,
2013-07-09 05:09:00,76.8,69.0,29.80,South,191,1.0,-999.0,77,0.00,,,0.00,WeatherSnoop3.0,2013-07-09 10:09:00,
2013-07-09 05:14:00,76.8,69.0,29.80,SW,226,4.0,-999.0,77,0.00,,,0.00,WeatherSnoop3.0,2013-07-09 10:14:00,
2013-07-09 05:19:00,76.7,68.9,29.80,SSW,205,2.0,-999.0,77,0.00,,,0.00,WeatherSnoop3.0,2013-07-09 10:19:00,
2013-07-09 05:24:00,76.6,68.8,29.80,SSW,210,2.0,-999.0,77,0.00,,,0.00,WeatherSnoop3.0,2013-07-09 10:24:00,
2013-07-09 05:29:00,76.6,68.8,29.80,East,88,4.0,-999.0,77,0.00,,,0.00,WeatherSnoop3.0,2013-07-09 10:29:00,
2013-07-09 05:34:00,76.6,68.8,29.80,SSE,149,2.0,-999.0,77,0.00,,,0.00,WeatherSnoop3.0,2013-07-09 10:34:00,
2013-07-09 05:39:00,76.6,68.8,29.80,SSE,155,1.0,-999.0,77,0.00,,,0.00,WeatherSnoop3.0,2013-07-09 10:39:00,
2013-07-09 05:44:00,76.6,68.8,29.80,East,88,4.0,-999.0,77,0.00,,,0.00,WeatherSnoop3.0,2013-07-09 10:44:00,
2013-07-09 05:49:00,76.5,68.7,29.80,ESE,119,6.0,-999.0,77,0.00,,,0.00,WeatherSnoop3.0,2013-07-09 10:49:00,
2013-07-09 05:54:00,76.5,68.7,29.80,SSE,155,4.0,-999.0,77,0.00,,,0.00,WeatherSnoop3.0,2013-07-09 10:54:00,
2013-07-09 05:59:00,76.5,69.1,29.80,SE,139,2.0,-999.0,78,0.00,,,0.00,WeatherSnoop3.0,2013-07-09 10:59:00,
2013-07-09 06:04:00,76.3,68.9,29.80,SE,132,4.0,-999.0,78,0.00,,,0.00,WeatherSnoop3.0,2013-07-09 11:04:00,
2013-07-09 06:09:00,76.3,68.9,29.80,SE,138,3.0,-999.0,78,0.00,,,0.00,WeatherSnoop3.0,2013-07-09 11:09:00,
2013-07-09 06:14:00,76.1,68.7,29.80,SE,139,4.0,-999.0,78,0.00,,,0.00,WeatherSnoop3.0,2013-07-09 11:14:00,
2013-07-09 06:19:00,76.0,68.6,29.81,South,186,2.0,-999.0,78,0.00,,,0.00,WeatherSnoop3.0,2013-07-09 11:19:00,
2013-07-09 06:24:00,75.8,68.8,29.81,South,173,1.0,-999.0,79,0.00,,,0.00,WeatherSnoop3.0,2013-07-09 11:24:00,
2013-07-09 06:29:00,75.7,68.7,29.80,SSE,156,1.0,-999.0,79,0.00,,,0.00,WeatherSnoop3.0,2013-07-09 11:29:00,
2013-07-09 06:34:00,75.7,68.7,29.80,SSE,153,5.0,-999.0,79,0.00,,,0.00,WeatherSnoop3.0,2013-07-09 11:34:00,
2013-07-09 06:39:00,75.7,68.7,29.80,South,186,1.0,-999.0,79,0.00,,,0.00,WeatherSnoop3.0,2013-07-09 11:39:00,
2013-07-09 06:44:00,75.7,68.7,29.80,SSE,148,3.0,-999.0,79,0.00,,,0.00,WeatherSnoop3.0,2013-07-09 11:44:00,
2013-07-09 06:49:00,75.8,68.8,29.80,WSW,238,4.0,-999.0,79,0.00,,,0.00,WeatherSnoop3.0,2013-07-09 11:49:00,
2013-07-09 06:54:00,75.9,68.9,29.80,SE,137,5.0,-999.0,79,0.00,,,0.00,WeatherSnoop3.0,2013-07-09 11:54:00,
2013-07-09 06:59:00,76.0,69.0,29.80,SE,128,2.0,-999.0,79,0.00,,,0.00,WeatherSnoop3.0,2013-07-09 11:59:00,
2013-07-09 07:04:00,76.1,69.1,29.80,South,172,2.0,-999.0,79,0.00,,,0.00,WeatherSnoop3.0,2013-07-09 12:04:00,
2013-07-09 07:09:00,76.2,68.8,29.80,SSE,149,2.0,-999.0,78,0.00,,,0.00,WeatherSnoop3.0,2013-07-09 12:09:00,
2013-07-09 07:14:00,76.6,69.2,29.80,SSE,160,1.0,-999.0,78,0.00,,,0.00,WeatherSnoop3.0,2013-07-09 12:14:00,
2013-07-09 07:19:00,76.8,69.4,29.80,SE,136,0.0,-999.0,78,0.00,,,0.00,WeatherSnoop3.0,2013-07-09 12:19:00,
2013-07-09 07:24:00,77.1,69.3,29.80,South,191,5.0,-999.0,77,0.00,,,0.00,WeatherSnoop3.0,2013-07-09 12:24:00,
2013-07-09 07:29:00,77.3,69.5,29.80,SE,145,2.0,-999.0,77,0.00,,,0.00,WeatherSnoop3.0,2013-07-09 12:29:00,
2013-07-09 07:34:00,77.4,69.6,29.81,South,183,2.0,-999.0,77,0.00,,,0.00,WeatherSnoop3.0,2013-07-09 12:34:00,
2013-07-09 07:39:00,77.5,69.3,29.81,SE,139,2.0,-999.0,76,0.00,,,0.00,WeatherSnoop3.0,2013-07-09 12:39:00,
2013-07-09 07:44:00,77.7,69.5,29.81,SSE,149,4.0,-999.0,76,0.00,,,0.00,WeatherSnoop3.0,2013-07-09 12:44:00,
2013-07-09 07:49:00,77.9,69.7,29.81,ESE,114,1.0,-999.0,76,0.00,,,0.00,WeatherSnoop3.0,2013-07-09 12:49:00,
2013-07-09 07:54:00,78.2,69.6,29.81,SSW,203,3.0,-999.0,75,0.00,,,0.00,WeatherSnoop3.0,2013-07-09 12:54:00,
2013-07-09 07:59:00,78.4,69.8,29.81,SE,146,1.0,-999.0,75,0.00,,,0.00,WeatherSnoop3.0,2013-07-09 12:59:00,
2013-07-09 08:04:00,78.7,70.1,29.81,SW,232,2.0,-999.0,75,0.00,,,0.00,WeatherSnoop3.0,2013-07-09 13:04:00,
2013-07-09 08:09:00,79.0,70.0,29.81,SSE,158,3.0,-999.0,74,0.00,,,0.00,WeatherSnoop3.0,2013-07-09 13:09:00,
2013-07-09 08:15:00,79.4,70.4,29.81,SSW,193,2.0,-999.0,74,0.00,,,0.00,WeatherSnoop3.0,2013-07-09 13:15:00,
2013-07-09 08:20:00,79.6,70.2,29.81,SSW,197,1.0,-999.0,73,0.00,,,0.00,WeatherSnoop3.0,2013-07-09 13:20:00,
2013-07-09 08:25:00,80.0,70.1,29.80,SE,146,3.0,-999.0,72,0.00,,,0.00,WeatherSnoop3.0,2013-07-09 13:25:00,
2013-07-09 08:30:00,80.3,70.0,29.80,SSE,149,5.0,-999.0,71,0.00,,,0.00,WeatherSnoop3.0,2013-07-09 13:30:00,
2013-07-09 08:35:00,80.6,70.3,29.81,WSW,238,1.0,-999.0,71,0.00,,,0.00,WeatherSnoop3.0,2013-07-09 13:35:00,
2013-07-09 08:40:00,81.1,70.4,29.81,SSE,147,4.0,-999.0,70,0.00,,,0.00,WeatherSnoop3.0,2013-07-09 13:40:00,
2013-07-09 08:45:00,81.6,70.0,29.81,SSE,150,3.0,-999.0,68,0.00,,,0.00,WeatherSnoop3.0,2013-07-09 13:45:00,
2013-07-09 08:50:00,82.2,70.6,29.81,ESE,115,4.0,-999.0,68,0.00,,,0.00,WeatherSnoop3.0,2013-07-09 13:50:00,
2013-07-09 08:55:00,82.8,70.3,29.81,SW,233,7.0,-999.0,66,0.00,,,0.00,WeatherSnoop3.0,2013-07-09 13:55:00,
2013-07-09 09:00:00,83.3,70.3,29.81,South,186,4.0,-999.0,65,0.00,,,0.00,WeatherSnoop3.0,2013-07-09 14:00:00,
2013-07-09 09:05:00,83.7,70.7,29.81,SSW,207,2.0,-999.0,65,0.00,,,0.00,WeatherSnoop3.0,2013-07-09 14:05:00,
2013-07-09 09:10:00,84.2,70.7,29.81,SSW,208,5.0,-999.0,64,0.00,,,0.00,WeatherSnoop3.0,2013-07-09 14:10:00,
2013-07-09 09:15:00,84.6,70.6,29.81,SSW,197,2.0,-999.0,63,0.00,,,0.00,WeatherSnoop3.0,2013-07-09 14:15:00,
2013-07-09 09:20:00,85.1,70.6,29.81,SSW,193,4.0,-999.0,62,0.00,,,0.00,WeatherSnoop3.0,2013-07-09 14:20:00,
2013-07-09 09:25:00,85.4,70.9,29.81,SE,134,4.0,-999.0,62,0.00,,,0.00,WeatherSnoop3.0,2013-07-09 14:25:00,
2013-07-09 09:30:00,85.9,70.4,29.81,ESE,117,3.0,-999.0,60,0.00,,,0.00,WeatherSnoop3.0,2013-07-09 14:30:00,
2013-07-09 09:35:00,86.5,70.9,29.81,SW,222,5.0,-999.0,60,0.00,,,0.00,WeatherSnoop3.0,2013-07-09 14:35:00,
2013-07-09 09:40:00,86.9,70.3,29.81,SW,232,4.0,-999.0,58,0.00,,,0.00,WeatherSnoop3.0,2013-07-09 14:40:00,
2013-07-09 09:45:00,87.1,70.5,29.80,SSW,211,5.0,-999.0,58,0.00,,,0.00,WeatherSnoop3.0,2013-07-09 14:45:00,
2013-07-09 09:50:00,87.7,71.1,29.80,SSE,162,3.0,-999.0,58,0.00,,,0.00,WeatherSnoop3.0,2013-07-09 14:50:00,
2013-07-09 09:55:00,88.0,70.8,29.80,SE,127,4.0,-999.0,57,0.00,,,0.00,WeatherSnoop3.0,2013-07-09 14:55:00,
2013-07-09 10:00:00,88.3,70.6,29.80,SSW,197,5.0,-999.0,56,0.00,,,0.00,WeatherSnoop3.0,2013-07-09 15:00:00,
2013-07-09 10:05:00,88.7,71.0,29.80,SE,129,3.0,-999.0,56,0.00,,,0.00,WeatherSnoop3.0,2013-07-09 15:05:00,
2013-07-09 10:10:00,89.0,70.7,29.80,South,175,4.0,-999.0,55,0.00,,,0.00,WeatherSnoop3.0,2013-07-09 15:10:00,
2013-07-09 10:15:00,89.3,71.0,29.79,ESE,113,4.0,-999.0,55,0.00,,,0.00,WeatherSnoop3.0,2013-07-09 15:15:00,
2013-07-09 10:20:00,89.7,70.3,29.79,WSW,248,13.0,-999.0,53,0.00,,,0.00,WeatherSnoop3.0,2013-07-09 15:20:00,
2013-07-09 10:25:00,89.9,71.5,29.79,SE,142,2.0,-999.0,55,0.00,,,0.00,WeatherSnoop3.0,2013-07-09 15:25:00,
2013-07-09 10:30:00,90.3,70.2,29.79,SSW,201,4.0,-999.0,52,0.00,,,0.00,WeatherSnoop3.0,2013-07-09 15:30:00,
2013-07-09 10:35:00,90.6,71.1,29.79,SE,129,5.0,-999.0,53,0.00,,,0.00,WeatherSnoop3.0,2013-07-09 15:35:00,
2013-07-09 10:40:00,91.0,70.3,29.79,SSW,193,5.0,-999.0,51,0.00,,,0.00,WeatherSnoop3.0,2013-07-09 15:40:00,
2013-07-09 10:45:00,91.3,71.2,29.79,South,190,4.0,-999.0,52,0.00,,,0.00,WeatherSnoop3.0,2013-07-09 15:45:00,
2013-07-09 10:50:00,91.6,70.9,29.79,SE,142,3.0,-999.0,51,0.00,,,0.00,WeatherSnoop3.0,2013-07-09 15:50:00,
2013-07-09 10:55:00,92.2,71.4,29.79,SSW,193,5.0,-999.0,51,0.00,,,0.00,WeatherSnoop3.0,2013-07-09 15:55:00,
2013-07-09 11:00:00,92.7,71.3,29.79,South,181,3.0,-999.0,50,0.00,,,0.00,WeatherSnoop3.0,2013-07-09 16:00:00,
2013-07-09 11:05:00,93.1,71.1,29.79,SW,218,4.0,-999.0,49,0.00,,,0.00,WeatherSnoop3.0,2013-07-09 16:05:00,
2013-07-09 11:10:00,93.7,71.0,29.79,South,184,5.0,-999.0,48,0.00,,,0.00,WeatherSnoop3.0,2013-07-09 16:10:00,
2013-07-09 11:15:00,93.9,69.9,29.79,WSW,240,7.0,-999.0,46,0.00,,,0.00,WeatherSnoop3.0,2013-07-09 16:15:00,
2013-07-09 11:20:00,94.2,70.2,29.79,SE,143,5.0,-999.0,46,0.00,,,0.00,WeatherSnoop3.0,2013-07-09 16:20:00,
2013-07-09 11:25:00,94.3,70.3,29.79,SSW,204,6.0,-999.0,46,0.00,,,0.00,WeatherSnoop3.0,2013-07-09 16:25:00,
2013-07-09 11:30:00,94.9,68.9,29.79,South,173,2.0,-999.0,43,0.00,,,0.00,WeatherSnoop3.0,2013-07-09 16:30:00,
2013-07-09 11:35:00,96.0,68.4,29.78,WSW,250,6.0,-999.0,41,0.00,,,0.00,WeatherSnoop3.0,2013-07-09 16:35:00,
2013-07-09 11:40:00,96.9,69.2,29.79,WSW,239,7.0,-999.0,41,0.00,,,0.00,WeatherSnoop3.0,2013-07-09 16:40:00,
2013-07-09 11:45:00,97.0,69.3,29.78,WSW,248,4.0,-999.0,41,0.00,,,0.00,WeatherSnoop3.0,2013-07-09 16:45:00,
2013-07-09 11:50:00,97.6,68.4,29.78,South,172,5.0,-999.0,39,0.00,,,0.00,WeatherSnoop3.0,2013-07-09 16:50:00,
2013-07-09 11:55:00,97.7,69.2,29.78,SSW,212,5.0,-999.0,40,0.00,,,0.00,WeatherSnoop3.0,2013-07-09 16:55:00,
2013-07-09 12:00:00,98.0,69.5,29.78,South,186,3.0,-999.0,40,0.00,,,0.00,WeatherSnoop3.0,2013-07-09 17:00:00,
2013-07-09 12:05:00,98.7,68.6,29.78,South,179,5.0,-999.0,38,0.00,,,0.00,WeatherSnoop3.0,2013-07-09 17:05:00,
2013-07-09 12:10:00,98.6,67.8,29.78,SW,232,12.0,-999.0,37,0.00,,,0.00,WeatherSnoop3.0,2013-07-09 17:10:00,
2013-07-09 12:15:00,99.1,68.2,29.77,SW,232,7.0,-999.0,37,0.00,,,0.00,WeatherSnoop3.0,2013-07-09 17:15:00,
2013-07-09 12:20:00,99.2,68.3,29.77,SSW,200,8.0,-999.0,37,0.00,,,0.00,WeatherSnoop3.0,2013-07-09 17:20:00,
2013-07-09 12:25:00,99.6,67.8,29.77,SSW,203,7.0,-999.0,36,0.00,,,0.00,WeatherSnoop3.0,2013-07-09 17:25:00,
2013-07-09 12:30:00,99.8,68.8,29.77,WSW,242,4.0,-999.0,37,0.00,,,0.00,WeatherSnoop3.0,2013-07-09 17:30:00,
2013-07-09 12:35:00,100.3,68.4,29.77,SSW,212,5.0,-999.0,36,0.00,,,0.00,WeatherSnoop3.0,2013-07-09 17:35:00,
2013-07-09 12:40:00,100.3,67.6,29.77,West,269,4.0,-999.0,35,0.00,,,0.00,WeatherSnoop3.0,2013-07-09 17:40:00,
2013-07-09 12:45:00,100.8,67.2,29.77,SSW,212,4.0,-999.0,34,0.00,,,0.00,WeatherSnoop3.0,2013-07-09 17:45:00,
2013-07-09 12:50:00,101.0,66.5,29.77,WSW,248,5.0,-999.0,33,0.00,,,0.00,WeatherSnoop3.0,2013-07-09 17:50:00,
2013-07-09 12:55:00,101.3,67.7,29.76,SW,229,7.0,-999.0,34,0.00,,,0.00,WeatherSnoop3.0,2013-07-09 17:55:00,
2013-07-09 13:00:00,102.0,68.3,29.76,SE,129,12.0,-999.0,34,0.00,,,0.00,WeatherSnoop3.0,2013-07-09 18:00:00,
2013-07-09 13:05:00,102.2,65.8,29.76,SSW,192,5.0,-999.0,31,0.00,,,0.00,WeatherSnoop3.0,2013-07-09 18:05:00,
2013-07-09 13:10:00,102.2,66.7,29.76,SW,215,2.0,-999.0,32,0.00,,,0.00,WeatherSnoop3.0,2013-07-09 18:10:00,
2013-07-09 13:15:00,102.5,66.9,29.76,SW,222,5.0,-999.0,32,0.00,,,0.00,WeatherSnoop3.0,2013-07-09 18:15:00,
2013-07-09 13:20:00,102.9,66.4,29.76,SW,225,2.0,-999.0,31,0.00,,,0.00,WeatherSnoop3.0,2013-07-09 18:20:00,
2013-07-09 13:25:00,103.1,65.6,29.75,West,271,10.0,-999.0,30,0.00,,,0.00,WeatherSnoop3.0,2013-07-09 18:25:00,
2013-07-09 13:30:00,103.1,65.6,29.76,SSW,207,7.0,-999.0,30,0.00,,,0.00,WeatherSnoop3.0,2013-07-09 18:30:00,
2013-07-09 13:35:00,103.2,64.7,29.76,SW,218,3.0,-999.0,29,0.00,,,0.00,WeatherSnoop3.0,2013-07-09 18:35:00,
2013-07-09 13:40:00,103.2,63.7,29.75,West,270,6.0,-999.0,28,0.00,,,0.00,WeatherSnoop3.0,2013-07-09 18:40:00,
2013-07-09 13:45:00,103.2,63.7,29.75,WSW,241,6.0,-999.0,28,0.00,,,0.00,WeatherSnoop3.0,2013-07-09 18:45:00,
2013-07-09 13:51:00,103.7,64.1,29.75,SSW,194,4.0,-999.0,28,0.00,,,0.00,WeatherSnoop3.0,2013-07-09 18:51:00,
2013-07-09 13:56:00,104.1,65.5,29.75,SW,218,4.0,-999.0,29,0.00,,,0.00,WeatherSnoop3.0,2013-07-09 18:56:00,
2013-07-09 14:01:00,104.0,65.4,29.75,SSW,194,4.0,-999.0,29,0.00,,,0.00,WeatherSnoop3.0,2013-07-09 19:01:00,
2013-07-09 14:06:00,104.2,64.5,29.75,SSW,194,3.0,-999.0,28,0.00,,,0.00,WeatherSnoop3.0,2013-07-09 19:06:00,
2013-07-09 14:11:00,104.1,66.4,29.75,SE,134,4.0,-999.0,30,0.00,,,0.00,WeatherSnoop3.0,2013-07-09 19:11:00,
2013-07-09 14:16:00,104.2,65.5,29.74,SW,224,5.0,-999.0,29,0.00,,,0.00,WeatherSnoop3.0,2013-07-09 19:16:00,
2013-07-09 14:21:00,104.5,64.8,29.74,SW,219,8.0,-999.0,28,0.00,,,0.00,WeatherSnoop3.0,2013-07-09 19:21:00,
2013-07-09 14:26:00,104.8,65.0,29.74,South,183,5.0,-999.0,28,0.00,,,0.00,WeatherSnoop3.0,2013-07-09 19:26:00,
2013-07-09 14:31:00,104.8,62.9,29.74,SW,221,8.0,-999.0,26,0.00,,,0.00,WeatherSnoop3.0,2013-07-09 19:31:00,
2013-07-09 14:36:00,104.7,65.0,29.74,SSW,212,5.0,-999.0,28,0.00,,,0.00,WeatherSnoop3.0,2013-07-09 19:36:00,
2013-07-09 14:41:00,105.1,65.3,29.74,SSE,151,8.0,-999.0,28,0.00,,,0.00,WeatherSnoop3.0,2013-07-09 19:41:00,
2013-07-09 14:46:00,104.6,63.8,29.74,WSW,245,4.0,-999.0,27,0.00,,,0.00,WeatherSnoop3.0,2013-07-09 19:46:00,
2013-07-09 14:51:00,105.0,64.2,29.74,SSW,212,6.0,-999.0,27,0.00,,,0.00,WeatherSnoop3.0,2013-07-09 19:51:00,
2013-07-09 14:56:00,105.3,63.3,29.74,WSW,250,7.0,-999.0,26,0.00,,,0.00,WeatherSnoop3.0,2013-07-09 19:56:00,
2013-07-09 15:02:00,105.1,64.3,29.74,West,267,1.0,-999.0,27,0.00,,,0.00,WeatherSnoop3.0,2013-07-09 20:02:00,
2013-07-09 15:07:00,105.2,63.3,29.73,SSE,152,4.0,-999.0,26,0.00,,,0.00,WeatherSnoop3.0,2013-07-09 20:07:00,
2013-07-09 15:12:00,104.9,63.0,29.73,SW,231,10.0,-999.0,26,0.00,,,0.00,WeatherSnoop3.0,2013-07-09 20:12:00,
2013-07-09 15:17:00,105.2,62.1,29.73,ESE,116,5.0,-999.0,25,0.00,,,0.00,WeatherSnoop3.0,2013-07-09 20:17:00,
2013-07-09 15:22:00,104.9,64.1,29.73,West,278,4.0,-999.0,27,0.00,,,0.00,WeatherSnoop3.0,2013-07-09 20:22:00,
2013-07-09 15:27:00,105.1,64.3,29.73,SSW,210,6.0,-999.0,27,0.00,,,0.00,WeatherSnoop3.0,2013-07-09 20:27:00,
2013-07-09 15:32:00,105.4,63.4,29.73,SW,229,3.0,-999.0,26,0.00,,,0.00,WeatherSnoop3.0,2013-07-09 20:32:00,
2013-07-09 15:37:00,105.7,63.7,29.73,SE,140,1.0,-999.0,26,0.00,,,0.00,WeatherSnoop3.0,2013-07-09 20:37:00,
2013-07-09 15:42:00,104.9,63.0,29.73,SSE,157,3.0,-999.0,26,0.00,,,0.00,WeatherSnoop3.0,2013-07-09 20:42:00,
2013-07-09 15:47:00,105.2,62.1,29.73,SW,225,11.0,-999.0,25,0.00,,,0.00,WeatherSnoop3.0,2013-07-09 20:47:00,
2013-07-09 15:52:00,105.0,63.1,29.73,SW,222,3.0,-999.0,26,0.00,,,0.00,WeatherSnoop3.0,2013-07-09 20:52:00,
2013-07-09 15:57:00,105.0,64.2,29.73,SE,129,3.0,-999.0,27,0.00,,,0.00,WeatherSnoop3.0,2013-07-09 20:57:00,
2013-07-09 16:02:00,104.9,65.1,29.72,SW,226,6.0,-999.0,28,0.00,,,0.00,WeatherSnoop3.0,2013-07-09 21:02:00,
2013-07-09 16:07:00,105.3,64.4,29.72,SW,231,4.0,-999.0,27,0.00,,,0.00,WeatherSnoop3.0,2013-07-09 21:07:00,
2013-07-09 16:12:00,105.1,64.3,29.72,SE,142,6.0,-999.0,27,0.00,,,0.00,WeatherSnoop3.0,2013-07-09 21:12:00,
2013-07-09 16:17:00,104.6,64.9,29.72,South,169,5.0,-999.0,28,0.00,,,0.00,WeatherSnoop3.0,2013-07-09 21:17:00,
2013-07-09 16:22:00,105.2,65.4,29.72,SW,232,11.0,-999.0,28,0.00,,,0.00,WeatherSnoop3.0,2013-07-09 21:22:00,
2013-07-09 16:27:00,105.3,64.4,29.71,ESE,119,4.0,-999.0,27,0.00,,,0.00,WeatherSnoop3.0,2013-07-09 21:27:00,
2013-07-09 16:32:00,104.9,63.0,29.72,WSW,248,6.0,-999.0,26,0.00,,,0.00,WeatherSnoop3.0,2013-07-09 21:32:00,
2013-07-09 16:37:00,105.3,63.3,29.72,WSW,239,6.0,-999.0,26,0.00,,,0.00,WeatherSnoop3.0,2013-07-09 21:37:00,
2013-07-09 16:39:00,105.5,62.4,29.71,SW,225,4.0,-999.0,25,0.00,,,0.00,WeatherSnoop3.0,2013-07-09 21:39:00,
2013-07-09 16:44:00,105.7,63.7,29.71,SE,129,2.0,-999.0,26,0.00,,,0.00,WeatherSnoop3.0,2013-07-09 21:44:00,
2013-07-09 16:49:00,105.8,62.6,29.71,WSW,248,6.0,-999.0,25,0.00,,,0.00,WeatherSnoop3.0,2013-07-09 21:49:00,
2013-07-09 16:54:00,105.8,61.5,29.71,SW,214,4.0,-999.0,24,0.00,,,0.00,WeatherSnoop3.0,2013-07-09 21:54:00,
2013-07-09 16:59:00,105.4,63.4,29.71,SE,139,1.0,-999.0,26,0.00,,,0.00,WeatherSnoop3.0,2013-07-09 21:59:00,
2013-07-09 17:04:00,105.4,62.3,29.70,SW,221,5.0,-999.0,25,0.00,,,0.00,WeatherSnoop3.0,2013-07-09 22:04:00,
2013-07-09 17:09:00,105.2,64.3,29.70,SSE,147,4.0,-999.0,27,0.00,,,0.00,WeatherSnoop3.0,2013-07-09 22:09:00,
2013-07-09 17:14:00,104.9,65.1,29.70,SW,229,2.0,-999.0,28,0.00,,,0.00,WeatherSnoop3.0,2013-07-09 22:14:00,
2013-07-09 17:19:00,105.2,64.3,29.70,SSW,212,4.0,-999.0,27,0.00,,,0.00,WeatherSnoop3.0,2013-07-09 22:19:00,
2013-07-09 17:24:00,104.8,64.0,29.70,SE,146,2.0,-999.0,27,0.00,,,0.00,WeatherSnoop3.0,2013-07-09 22:24:00,
2013-07-09 17:29:00,104.5,63.8,29.70,ESE,103,6.0,-999.0,27,0.00,,,0.00,WeatherSnoop3.0,2013-07-09 22:29:00,
2013-07-09 17:34:00,104.4,63.7,29.70,SE,125,8.0,-999.0,27,0.00,,,0.00,WeatherSnoop3.0,2013-07-09 22:34:00,
2013-07-09 17:39:00,103.9,63.2,29.70,South,181,5.0,-999.0,27,0.00,,,0.00,WeatherSnoop3.0,2013-07-09 22:39:00,
2013-07-09 17:44:00,104.1,63.4,29.70,WSW,240,1.0,-999.0,27,0.00,,,0.00,WeatherSnoop3.0,2013-07-09 22:44:00,
2013-07-09 17:49:00,104.2,62.4,29.69,SSE,156,6.0,-999.0,26,0.00,,,0.00,WeatherSnoop3.0,2013-07-09 22:49:00,
2013-07-09 17:55:00,103.7,63.1,29.69,SE,132,4.0,-999.0,27,0.00,,,0.00,WeatherSnoop3.0,2013-07-09 22:55:00,
2013-07-09 18:00:00,103.7,63.1,29.69,SE,140,3.0,-999.0,27,0.00,,,0.00,WeatherSnoop3.0,2013-07-09 23:00:00,
2013-07-09 18:05:00,103.9,63.2,29.69,SE,135,4.0,-999.0,27,0.00,,,0.00,WeatherSnoop3.0,2013-07-09 23:05:00,
2013-07-09 18:10:00,103.7,63.1,29.69,SW,226,2.0,-999.0,27,0.00,,,0.00,WeatherSnoop3.0,2013-07-09 23:10:00,
2013-07-09 18:15:00,103.9,63.2,29.69,SE,141,2.0,-999.0,27,0.00,,,0.00,WeatherSnoop3.0,2013-07-09 23:15:00,
2013-07-09 18:20:00,103.6,63.0,29.69,SW,225,6.0,-999.0,27,0.00,,,0.00,WeatherSnoop3.0,2013-07-09 23:20:00,
2013-07-09 18:25:00,103.4,62.8,29.69,SW,222,4.0,-999.0,27,0.00,,,0.00,WeatherSnoop3.0,2013-07-09 23:25:00,
2013-07-09 18:30:00,103.3,62.7,29.68,SSE,149,2.0,-999.0,27,0.00,,,0.00,WeatherSnoop3.0,2013-07-09 23:30:00,
2013-07-09 18:35:00,103.5,63.9,29.68,SSW,212,4.0,-999.0,28,0.00,,,0.00,WeatherSnoop3.0,2013-07-09 23:35:00,
2013-07-09 18:40:00,103.3,63.8,29.68,SW,231,2.0,-999.0,28,0.00,,,0.00,WeatherSnoop3.0,2013-07-09 23:40:00,
2013-07-09 18:46:00,103.2,62.7,29.68,SSE,155,4.0,-999.0,27,0.00,,,0.00,WeatherSnoop3.0,2013-07-09 23:46:00,
2013-07-09 18:51:00,102.9,62.4,29.67,South,169,4.0,-999.0,27,0.00,,,0.00,WeatherSnoop3.0,2013-07-09 23:51:00,
2013-07-09 18:56:00,102.6,62.1,29.67,SE,142,3.0,-999.0,27,0.00,,,0.00,WeatherSnoop3.0,2013-07-09 23:56:00,
2013-07-09 19:01:00,102.4,62.0,29.67,South,174,4.0,-999.0,27,0.00,,,0.00,WeatherSnoop3.0,2013-07-10 00:01:00,
2013-07-09 19:06:00,102.3,62.9,29.68,SE,137,1.0,-999.0,28,0.00,,,0.00,WeatherSnoop3.0,2013-07-10 00:06:00,
2013-07-09 19:11:00,102.1,62.8,29.68,SW,215,4.0,-999.0,28,0.00,,,0.00,WeatherSnoop3.0,2013-07-10 00:11:00,
2013-07-09 19:16:00,101.8,63.5,29.68,SSE,160,4.0,-999.0,29,0.00,,,0.00,WeatherSnoop3.0,2013-07-10 00:16:00,
2013-07-09 19:21:00,101.3,63.1,29.68,SW,215,3.0,-999.0,29,0.00,,,0.00,WeatherSnoop3.0,2013-07-10 00:21:00,
2013-07-09 19:26:00,100.5,63.4,29.68,SSW,194,2.0,-999.0,30,0.00,,,0.00,WeatherSnoop3.0,2013-07-10 00:26:00,
2013-07-09 19:31:00,100.3,64.1,29.69,SSW,205,3.0,-999.0,31,0.00,,,0.00,WeatherSnoop3.0,2013-07-10 00:31:00,
2013-07-09 19:36:00,99.7,63.6,29.69,SE,136,1.0,-999.0,31,0.00,,,0.00,WeatherSnoop3.0,2013-07-10 00:36:00,
2013-07-09 19:41:00,98.9,63.8,29.69,SSW,210,2.0,-999.0,32,0.00,,,0.00,WeatherSnoop3.0,2013-07-10 00:41:00,
2013-07-09 19:46:00,98.2,64.1,29.69,SE,145,2.0,-999.0,33,0.00,,,0.00,WeatherSnoop3.0,2013-07-10 00:46:00,
2013-07-09 19:51:00,97.6,63.6,29.69,South,170,3.0,-999.0,33,0.00,,,0.00,WeatherSnoop3.0,2013-07-10 00:51:00,
2013-07-09 19:56:00,97.3,63.3,29.68,SE,140,4.0,-999.0,33,0.00,,,0.00,WeatherSnoop3.0,2013-07-10 00:56:00,
2013-07-09 20:01:00,97.0,63.1,29.68,ESE,108,3.0,-999.0,33,0.00,,,0.00,WeatherSnoop3.0,2013-07-10 01:01:00,
2013-07-09 20:06:00,96.7,62.8,29.68,SE,125,1.0,-999.0,33,0.00,,,0.00,WeatherSnoop3.0,2013-07-10 01:06:00,
2013-07-09 20:11:00,96.5,62.6,29.68,SE,131,3.0,-999.0,33,0.00,,,0.00,WeatherSnoop3.0,2013-07-10 01:11:00,
2013-07-09 20:16:00,96.2,62.4,29.68,SE,145,1.0,-999.0,33,0.00,,,0.00,WeatherSnoop3.0,2013-07-10 01:16:00,
2013-07-09 20:21:00,95.9,63.0,29.68,SSE,165,0.0,-999.0,34,0.00,,,0.00,WeatherSnoop3.0,2013-07-10 01:21:00,
2013-07-09 20:26:00,95.5,62.6,29.68,ESE,117,0.0,-999.0,34,0.00,,,0.00,WeatherSnoop3.0,2013-07-10 01:26:00,
2013-07-09 20:31:00,95.2,62.4,29.68,SE,145,1.0,-999.0,34,0.00,,,0.00,WeatherSnoop3.0,2013-07-10 01:31:00,
2013-07-09 20:36:00,95.0,63.0,29.69,SSW,208,2.0,-999.0,35,0.00,,,0.00,WeatherSnoop3.0,2013-07-10 01:36:00,
2013-07-09 20:41:00,94.8,62.8,29.69,SE,131,2.0,-999.0,35,0.00,,,0.00,WeatherSnoop3.0,2013-07-10 01:41:00,
2013-07-09 20:46:00,94.8,62.8,29.70,South,188,5.0,-999.0,35,0.00,,,0.00,WeatherSnoop3.0,2013-07-10 01:46:00,
2013-07-09 20:51:00,94.7,63.5,29.70,ESE,119,4.0,-999.0,36,0.00,,,0.00,WeatherSnoop3.0,2013-07-10 01:51:00,
2013-07-09 20:56:00,94.3,64.7,29.71,SE,134,2.0,-999.0,38,0.00,,,0.00,WeatherSnoop3.0,2013-07-10 01:56:00,
2013-07-09 21:01:00,94.0,65.2,29.71,South,186,2.0,-999.0,39,0.00,,,0.00,WeatherSnoop3.0,2013-07-10 02:01:00,
2013-07-09 21:06:00,93.8,65.0,29.71,SE,134,5.0,-999.0,39,0.00,,,0.00,WeatherSnoop3.0,2013-07-10 02:06:00,
2013-07-09 21:11:00,93.5,65.5,29.72,WNW,293,2.0,-999.0,40,0.00,,,0.00,WeatherSnoop3.0,2013-07-10 02:11:00,
2013-07-09 21:16:00,93.3,65.3,29.72,SSE,149,1.0,-999.0,40,0.00,,,0.00,WeatherSnoop3.0,2013-07-10 02:16:00,
2013-07-09 21:21:00,93.1,65.1,29.71,ESE,102,8.0,-999.0,40,0.00,,,0.00,WeatherSnoop3.0,2013-07-10 02:21:00,
2013-07-09 21:26:00,92.9,65.7,29.71,SW,215,2.0,-999.0,41,0.00,,,0.00,WeatherSnoop3.0,2013-07-10 02:26:00,
2013-07-09 21:31:00,92.7,65.5,29.71,South,190,5.0,-999.0,41,0.00,,,0.00,WeatherSnoop3.0,2013-07-10 02:31:00,
2013-07-09 21:36:00,92.6,65.4,29.72,SE,129,7.0,-999.0,41,0.00,,,0.00,WeatherSnoop3.0,2013-07-10 02:36:00,
2013-07-09 21:41:00,92.4,65.9,29.73,WSW,242,4.0,-999.0,42,0.00,,,0.00,WeatherSnoop3.0,2013-07-10 02:41:00,
2013-07-09 21:46:00,92.1,65.0,29.77,NNW,343,0.0,-999.0,41,0.00,,,0.00,WeatherSnoop3.0,2013-07-10 02:46:00,
2013-07-09 21:51:00,90.7,65.1,29.77,SSE,149,1.0,-999.0,43,0.00,,,0.00,WeatherSnoop3.0,2013-07-10 02:51:00,
2013-07-09 21:56:00,89.4,65.2,29.77,NE,53,2.0,-999.0,45,0.00,,,0.00,WeatherSnoop3.0,2013-07-10 02:56:00,
2013-07-09 22:01:00,88.5,65.0,29.78,ENE,67,1.0,-999.0,46,0.00,,,0.00,WeatherSnoop3.0,2013-07-10 03:01:00,
2013-07-09 22:06:00,87.5,64.1,29.78,ENE,63,3.0,-999.0,46,0.00,,,0.00,WeatherSnoop3.0,2013-07-10 03:06:00,
2013-07-09 22:11:00,86.9,64.2,29.79,NNE,22,2.0,-999.0,47,0.00,,,0.00,WeatherSnoop3.0,2013-07-10 03:11:00,
2013-07-09 22:16:00,86.4,63.8,29.79,ESE,107,3.0,-999.0,47,0.00,,,0.00,WeatherSnoop3.0,2013-07-10 03:16:00,
2013-07-09 22:21:00,86.1,64.1,29.80,NNE,30,3.0,-999.0,48,0.00,,,0.00,WeatherSnoop3.0,2013-07-10 03:21:00,
2013-07-09 22:26:00,85.7,63.7,29.81,NNE,25,2.0,-999.0,48,0.00,,,0.00,WeatherSnoop3.0,2013-07-10 03:26:00,
2013-07-09 22:32:00,85.5,64.1,29.81,ENE,58,2.0,-999.0,49,0.00,,,0.00,WeatherSnoop3.0,2013-07-10 03:32:00,
2013-07-09 22:37:00,85.3,63.9,29.82,NE,46,3.0,-999.0,49,0.00,,,0.00,WeatherSnoop3.0,2013-07-10 03:37:00,
2013-07-09 22:42:00,85.1,64.3,29.83,NE,43,2.0,-999.0,50,0.00,,,0.00,WeatherSnoop3.0,2013-07-10 03:42:00,
2013-07-09 22:47:00,84.7,65.1,29.83,North,6,3.0,-999.0,52,0.00,,,0.00,WeatherSnoop3.0,2013-07-10 03:47:00,
2013-07-09 22:52:00,84.2,65.7,29.83,NE,44,2.0,-999.0,54,0.00,,,0.00,WeatherSnoop3.0,2013-07-10 03:52:00,
2013-07-09 22:57:00,83.6,66.2,29.84,ENE,75,3.0,-999.0,56,0.00,,,0.00,WeatherSnoop3.0,2013-07-10 03:57:00,
2013-07-09 23:01:00,82.9,66.6,29.84,NNW,333,4.0,-999.0,58,0.00,,,0.00,WeatherSnoop3.0,2013-07-10 04:01:00,
2013-07-09 23:04:00,82.3,67.0,29.84,NNE,27,0.0,-999.0,60,0.00,,,0.00,WeatherSnoop3.0,2013-07-10 04:04:00,
2013-07-09 23:05:00,82.0,67.2,29.84,East,88,0.0,-999.0,61,0.00,,,0.00,WeatherSnoop3.0,2013-07-10 04:05:00,
2013-07-09 23:06:00,81.8,67.5,29.84,NE,50,2.0,-999.0,62,0.00,,,0.00,WeatherSnoop3.0,2013-07-10 04:06:00,
2013-07-09 23:09:00,80.8,67.9,29.83,East,82,2.0,-999.0,65,0.00,,,0.00,WeatherSnoop3.0,2013-07-10 04:09:00,
2013-07-09 23:14:00,79.6,68.5,29.83,NW,313,0.0,-999.0,69,0.00,,,0.01,WeatherSnoop3.0,2013-07-10 04:14:00,
2013-07-09 23:19:00,78.7,68.9,29.83,NE,53,4.0,-999.0,72,0.00,,,0.01,WeatherSnoop3.0,2013-07-10 04:19:00,
2013-07-09 23:24:00,78.6,68.8,29.82,ESE,103,2.0,-999.0,72,0.00,,,0.01,WeatherSnoop3.0,2013-07-10 04:24:00,
2013-07-09 23:29:00,78.7,68.1,29.83,ESE,123,2.0,-999.0,70,0.00,,,0.01,WeatherSnoop3.0,2013-07-10 04:29:00,
2013-07-09 23:34:00,78.7,68.5,29.83,ENE,62,2.0,-999.0,71,0.00,,,0.02,WeatherSnoop3.0,2013-07-10 04:34:00,
2013-07-09 23:39:00,78.8,68.2,29.83,ENE,65,1.0,-999.0,70,0.00,,,0.02,WeatherSnoop3.0,2013-07-10 04:39:00,
2013-07-09 23:44:00,78.9,68.3,29.83,East,84,0.0,-999.0,70,0.00,,,0.02,WeatherSnoop3.0,2013-07-10 04:44:00,
2013-07-09 23:49:00,78.6,69.6,29.82,SE,139,0.0,-999.0,74,0.00,,,0.02,WeatherSnoop3.0,2013-07-10 04:49:00,
2013-07-09 23:54:00,77.7,68.3,29.82,SE,133,1.0,-999.0,73,0.00,,,0.02,WeatherSnoop3.0,2013-07-10 04:54:00,
2013-07-09 23:59:00,77.5,68.9,29.82,SW,236,2.0,-999.0,75,0.00,,,0.02,WeatherSnoop3.0,2013-07-10 04:59:00,